When you browse on this site, cookies collect data to enhance your experience and personalize the content and advertising you see.
Visit our Privacy Policy to learn more. By continuing to use the site, you agree to this use of cookies and data.
  • In Hungary
  • List of Countries
  • For 7 days
  • Water Temperature
  • Satellite Maps
  • Weather Map
  • News
  • Weather Widgets
  • user-avatar
    Login

    Hourly Weather Crevillente

    Today, 9 December, Sunday

    Time Temperature Precipitation Wind Pressure Humidity
    00:00 +12°C° 0 mm 1 mps 761 mmHg 76%
    01:00 +12°C° 0 mm 2 mps 761 mmHg 73%
    02:00 +12°C° 0 mm 2 mps 760 mmHg 70%
    03:00 +12°C° 0 mm 2 mps 760 mmHg 66%
    04:00 +12°C° 0 mm 2 mps 760 mmHg 63%
    05:00 +12°C° 0 mm 2 mps 760 mmHg 60%
    06:00 +12°C° 0 mm 2 mps 760 mmHg 55%
    07:00 +13°C° 0 mm 3 mps 760 mmHg 51%
    08:00 +14°C° 0 mm 3 mps 761 mmHg 47%
    09:00 +16°C° 0 mm 3 mps 761 mmHg 43%
    10:00 +18°C° 0 mm 3 mps 760 mmHg 39%
    11:00 +21°C° 0 mm 3 mps 760 mmHg 34%
    12:00 +23°C° 0 mm 4 mps 760 mmHg 30%
    13:00 +23°C° 0 mm 4 mps 760 mmHg 30%
    14:00 +25°C° 0 mm 3 mps 759 mmHg 31%
    15:00 +25°C° 0 mm 3 mps 759 mmHg 31%
    16:00 +22°C° 0 mm 3 mps 759 mmHg 35%
    17:00 +20°C° 0 mm 3 mps 759 mmHg 40%
    18:00 +18°C° 0 mm 3 mps 760 mmHg 44%
    19:00 +17°C° 0 mm 2 mps 760 mmHg 44%
    20:00 +17°C° 0 mm 2 mps 760 mmHg 45%
    21:00 +16°C° 0 mm 2 mps 760 mmHg 45%
    22:00 +16°C° 0 mm 2 mps 760 mmHg 45%
    23:00 +15°C° 0 mm 2 mps 760 mmHg 45%

    Tomorrow, 10 December, Monday

    Time Temperature Precipitation Wind Pressure Humidity
    00:00 +15°C° 0 mm 2 mps 761 mmHg 45%
    01:00 +14°C° 0 mm 2 mps 760 mmHg 44%
    02:00 +14°C° 0 mm 2 mps 760 mmHg 43%
    03:00 +13°C° 0 mm 2 mps 760 mmHg 43%
    04:00 +13°C° 0 mm 2 mps 760 mmHg 45%
    05:00 +13°C° 0 mm 2 mps 760 mmHg 48%
    06:00 +12°C° 0 mm 2 mps 760 mmHg 51%
    07:00 +14°C° 0 mm 2 mps 760 mmHg 53%
    08:00 +15°C° 0 mm 2 mps 761 mmHg 55%
    09:00 +17°C° 0 mm 2 mps 761 mmHg 57%
    10:00 +17°C° 0 mm 2 mps 761 mmHg 57%
    11:00 +18°C° 0 mm 2 mps 761 mmHg 57%
    12:00 +19°C° 0 mm 3 mps 760 mmHg 57%
    13:00 +19°C° 0 mm 2 mps 760 mmHg 58%
    14:00 +19°C° 0 mm 2 mps 759 mmHg 58%
    15:00 +19°C° 0 mm 2 mps 759 mmHg 59%
    16:00 +17°C° 0 mm 2 mps 759 mmHg 68%
    17:00 +16°C° 0 mm 2 mps 759 mmHg 77%
    18:00 +14°C° 0 mm 1 mps 759 mmHg 86%
    19:00 +13°C° 0 mm 1 mps 759 mmHg 88%
    20:00 +13°C° 0 mm 1 mps 759 mmHg 90%
    21:00 +11°C° 0 mm 0 mps 759 mmHg 92%
    22:00 +11°C° 0 mm 0 mps 758 mmHg 92%
    23:00 +10°C° 0 mm 0 mps 758 mmHg 93%

    Day after tomorrow, 11 December, Tuesday

    Time Temperature Precipitation Wind Pressure Humidity
    00:00 +10°C° 0 mm 0 mps 758 mmHg 93%
    01:00 +10°C° 0 mm 0 mps 758 mmHg 93%
    02:00 +9°C° 0 mm 0 mps 757 mmHg 93%
    03:00 +9°C° 0 mm 0 mps 757 mmHg 93%
    04:00 +9°C° 0 mm 0 mps 757 mmHg 92%
    05:00 +9°C° 0 mm 0 mps 756 mmHg 92%
    06:00 +9°C° 0 mm 0 mps 756 mmHg 92%
    07:00 +10°C° 0 mm 0 mps 756 mmHg 87%
    08:00 +13°C° 0 mm 1 mps 757 mmHg 81%
    09:00 +15°C° 0 mm 1 mps 757 mmHg 76%
    10:00 +16°C° 0 mm 1 mps 756 mmHg 68%
    11:00 +19°C° 0 mm 1 mps 756 mmHg 59%
    12:00 +19°C° 0 mm 2 mps 756 mmHg 50%
    13:00 +20°C° 0 mm 2 mps 755 mmHg 47%
    14:00 +20°C° 0 mm 2 mps 755 mmHg 45%
    15:00 +21°C° 0 mm 3 mps 754 mmHg 42%
    16:00 +19°C° 0 mm 3 mps 755 mmHg 49%
    17:00 +17°C° 0 mm 3 mps 755 mmHg 56%
    18:00 +16°C° 0 mm 3 mps 755 mmHg 63%
    19:00 +14°C° 0 mm 3 mps 755 mmHg 63%
    20:00 +14°C° 0 mm 3 mps 755 mmHg 63%
    21:00 +14°C° 0 mm 3 mps 755 mmHg 63%
    22:00 +14°C° 0 mm 3 mps 755 mmHg 62%
    23:00 +13°C° 0 mm 3 mps 755 mmHg 62%

    12 December, Wednesday

    Time Temperature Precipitation Wind Pressure Humidity
    00:00 +13°C° 0 mm 3 mps 755 mmHg 61%
    01:00 +13°C° 0 mm 3 mps 755 mmHg 61%
    02:00 +12°C° 0 mm 3 mps 755 mmHg 61%
    03:00 +12°C° 0 mm 3 mps 755 mmHg 61%
    04:00 +12°C° 0 mm 3 mps 755 mmHg 62%
    05:00 +13°C° 0 mm 2 mps 755 mmHg 63%
    06:00 +12°C° 0 mm 2 mps 755 mmHg 64%
    07:00 +13°C° 0 mm 2 mps 755 mmHg 60%
    08:00 +14°C° 0 mm 2 mps 756 mmHg 56%
    09:00 +15°C° 0 mm 2 mps 756 mmHg 52%
    10:00 +18°C° 0 mm 1 mps 756 mmHg 47%
    11:00 +20°C° 0 mm 1 mps 755 mmHg 42%
    12:00 +21°C° 0 mm 1 mps 755 mmHg 36%
    13:00 +22°C° 0 mm 1 mps 755 mmHg 36%
    14:00 +21°C° 0 mm 2 mps 754 mmHg 36%
    15:00 +21°C° 0 mm 2 mps 753 mmHg 36%
    16:00 +19°C° 0 mm 2 mps 753 mmHg 45%
    17:00 +17°C° 0 mm 2 mps 753 mmHg 54%
    18:00 +15°C° 0 mm 2 mps 753 mmHg 63%
    19:00 +14°C° 0 mm 2 mps 753 mmHg 65%
    20:00 +14°C° 0 mm 2 mps 753 mmHg 67%
    21:00 +14°C° 0 mm 2 mps 754 mmHg 70%
    22:00 +14°C° 0 mm 2 mps 753 mmHg 68%
    23:00 +14°C° 0 mm 2 mps 753 mmHg 66%

    13 December, Thursday

    Time Temperature Precipitation Wind Pressure Humidity
    00:00 +14°C° 0 mm 2 mps 753 mmHg 64%
    01:00 +13°C° 0 mm 3 mps 753 mmHg 65%
    02:00 +13°C° 0 mm 3 mps 753 mmHg 66%
    03:00 +13°C° 0 mm 3 mps 753 mmHg 66%
    04:00 +13°C° 0 mm 3 mps 753 mmHg 67%
    05:00 +13°C° 0 mm 3 mps 753 mmHg 68%
    06:00 +13°C° 0 mm 3 mps 753 mmHg 68%
    07:00 +14°C° 0 mm 4 mps 753 mmHg 67%
    08:00 +14°C° 0 mm 4 mps 754 mmHg 65%
    09:00 +15°C° 0 mm 5 mps 754 mmHg 63%
    10:00 +17°C° 0 mm 5 mps 754 mmHg 58%
    11:00 +19°C° 0 mm 6 mps 754 mmHg 53%
    12:00 +21°C° 0 mm 6 mps 754 mmHg 48%
    13:00 +21°C° 0 mm 6 mps 754 mmHg 48%
    14:00 +21°C° 0 mm 6 mps 754 mmHg 48%
    15:00 +21°C° 0 mm 6 mps 754 mmHg 48%
    16:00 +19°C° 0 mm 5 mps 754 mmHg 54%
    17:00 +16°C° 0 mm 5 mps 754 mmHg 59%
    18:00 +15°C° 0 mm 5 mps 754 mmHg 65%
    19:00 +14°C° 0 mm 4 mps 755 mmHg 67%
    20:00 +14°C° 0 mm 3 mps 755 mmHg 69%
    21:00 +13°C° 0 mm 3 mps 755 mmHg 71%
    22:00 +13°C° 0 mm 3 mps 755 mmHg 71%
    23:00 +13°C° 0 mm 3 mps 755 mmHg 71%

    14 December, Friday

    Time Temperature Precipitation Wind Pressure Humidity
    00:00 +13°C° 0 mm 3 mps 755 mmHg 71%
    01:00 +13°C° 0 mm 3 mps 755 mmHg 72%
    02:00 +12°C° 0 mm 3 mps 755 mmHg 73%
    03:00 +12°C° 0 mm 3 mps 755 mmHg 74%
    04:00 +12°C° 0 mm 3 mps 755 mmHg 74%
    05:00 +12°C° 0 mm 3 mps 756 mmHg 75%
    06:00 +12°C° 0 mm 3 mps 756 mmHg 76%
    07:00 +13°C° 0 mm 3 mps 756 mmHg 71%
    08:00 +14°C° 0 mm 3 mps 757 mmHg 67%
    09:00 +14°C° 0 mm 3 mps 757 mmHg 62%
    10:00 +17°C° 0 mm 4 mps 757 mmHg 54%
    11:00 +19°C° 0 mm 5 mps 757 mmHg 46%
    12:00 +21°C° 0 mm 5 mps 757 mmHg 37%
    13:00 +21°C° 0 mm 6 mps 757 mmHg 38%
    14:00 +22°C° 0 mm 6 mps 756 mmHg 38%
    15:00 +22°C° 0 mm 6 mps 756 mmHg 39%
    16:00 +21°C° 0 mm 6 mps 757 mmHg 45%
    17:00 +19°C° 0 mm 5 mps 757 mmHg 52%
    18:00 +16°C° 0 mm 5 mps 757 mmHg 58%
    19:00 +15°C° 0 mm 4 mps 758 mmHg 61%
    20:00 +15°C° 0 mm 4 mps 758 mmHg 64%
    21:00 +14°C° 0 mm 4 mps 759 mmHg 66%
    22:00 +14°C° 0 mm 3 mps 759 mmHg 68%
    23:00 +14°C° 0 mm 3 mps 759 mmHg 70%
    Show more